Weather History for Rensselaer, IN

Change the Weather History Date:

Monday, December 12, 2011

  Actual Average (KVPZ) Record (KVPZ)
Temperature  
Mean Temperature 34 °F 29 °F  
Max Temperature 44 °F 36 °F 51 °F (2006)
Min Temperature 24 °F 22 °F -7 °F (2000)
Degree Days  
Heating Degree Days 31 36  
Month to date heating degree days 408  
Since 1 July heating degree days 1666  
Cooling Degree Days 0 0  
Month to date cooling degree days 0  
Year to date cooling degree days 713  
Moisture  
Dew Point 23 °F    
Average Humidity 67    
Maximum Humidity 86    
Minimum Humidity 39    
Precipitation  
Precipitation 0.00 in 0.06 in 0.16 in (2001)
Month to date precipitation 0.97  
Year to date precipitation 36.30  
Sea Level Pressure  
Sea Level Pressure 30.41 in    
Wind  
Wind Speed 3 mph (SSE)    
Max Wind Speed 9 mph    
Max Gust Speed -    
Visibility 10 miles    
Events      
T = Trace of Precipitation, MM = Missing Value Source: NWS Daily Summary

Daily Weather History Graph

Daily Weather History Graph

Search for Another Location

Airport:

Trip Planner

Search our weather history database for the weather conditions in past years. The results will help you decide how hot, cold, wet, or windy it might be!

Date:

Astronomy

Dec. 12, 2011 Rise Set
Actual Time 7:03 AM CST 4:20 PM CST
Civil Twilight 6:32 AM CST 4:51 PM CST
Nautical Twilight 5:58 AM CST 5:26 PM CST
Astronomical Twilight 5:25 AM CST 5:59 PM CST
Moon 6:31 PM CST (12/12) 8:35 AM CST (12/12)
Length of Visible Light 10h 18m
Length of Day
9h 16m
Waning Gibbous, 95% of the Moon is Illuminated
Dec 12
Waning Gibbous
Dec 17
Last Quarter
Dec 24
New
Jan 1
First Quarter
Jan 9
Full

Hourly Weather History & Observations

Time (CST) Temp. Windchill Dew Point Humidity Pressure Visibility Wind Dir Wind Speed Gust Speed Precip Events Conditions
12:15 AM 26.6 °F 22.6 °F 21.2 °F 80% 30.40 in 10.0 mi South 3.5 mph - N/A   Clear
12:35 AM 28.4 °F - 23.0 °F 80% 30.40 in 10.0 mi Calm Calm - N/A   Clear
12:55 AM 28.4 °F 24.6 °F 21.2 °F 74% 30.39 in 10.0 mi SSE 3.5 mph - N/A   Clear
1:15 AM 26.6 °F 22.6 °F 21.2 °F 80% 30.40 in 10.0 mi SSE 3.5 mph - N/A   Clear
1:35 AM 28.4 °F 24.6 °F 21.2 °F 74% 30.40 in 10.0 mi SE 3.5 mph - N/A   Clear
1:55 AM 26.6 °F 22.6 °F 21.2 °F 80% 30.41 in 10.0 mi SSE 3.5 mph - N/A   Clear
2:15 AM 26.6 °F - 21.2 °F 80% 30.41 in 10.0 mi Calm Calm - N/A   Clear
2:35 AM 26.6 °F - 21.2 °F 80% 30.41 in 10.0 mi Calm Calm - N/A   Clear
2:55 AM 26.6 °F - 21.2 °F 80% 30.41 in 10.0 mi Calm Calm - N/A   Clear
3:15 AM 26.6 °F 22.6 °F 21.2 °F 80% 30.41 in 10.0 mi SSE 3.5 mph - N/A   Clear
3:35 AM 26.6 °F - 21.2 °F 80% 30.41 in 10.0 mi Calm Calm - N/A   Clear
3:55 AM 26.6 °F 22.6 °F 21.2 °F 80% 30.41 in 10.0 mi SE 3.5 mph - N/A   Clear
4:15 AM 26.6 °F 22.6 °F 21.2 °F 80% 30.41 in 10.0 mi SSE 3.5 mph - N/A   Clear
4:55 AM 24.8 °F - 21.2 °F 86% 30.41 in 10.0 mi Calm Calm - N/A   Clear
5:15 AM 24.8 °F 19.1 °F 21.2 °F 86% 30.41 in 10.0 mi SSE 4.6 mph - N/A   Clear
5:35 AM 24.8 °F 20.5 °F 21.2 °F 86% 30.41 in 10.0 mi SE 3.5 mph - N/A   Clear
5:55 AM 26.6 °F 21.2 °F 21.2 °F 80% 30.42 in 10.0 mi SSE 4.6 mph - N/A   Clear
6:15 AM 24.8 °F 19.1 °F 21.2 °F 86% 30.41 in 10.0 mi SE 4.6 mph - N/A   Clear
6:35 AM 24.8 °F - 21.2 °F 86% 30.42 in 10.0 mi Calm Calm - N/A   Clear
6:55 AM 26.6 °F - 21.2 °F 80% 30.42 in 10.0 mi Calm Calm - N/A   Clear
7:15 AM 26.6 °F - 21.2 °F 80% 30.43 in 10.0 mi Calm Calm - N/A   Clear
7:35 AM 26.6 °F - 21.2 °F 80% 30.43 in 10.0 mi Calm Calm - N/A   Clear
7:55 AM 26.6 °F - 21.2 °F 80% 30.44 in 10.0 mi Calm Calm - N/A   Clear
8:15 AM 28.4 °F - 23.0 °F 80% 30.44 in 10.0 mi Calm Calm - N/A   Clear
8:35 AM 30.2 °F 26.7 °F 23.0 °F 75% 30.43 in 10.0 mi SSE 3.5 mph - N/A   Clear
8:55 AM 32.0 °F 26.4 °F 23.0 °F 69% 30.44 in 10.0 mi South 5.8 mph - N/A   Clear
9:15 AM 32.0 °F 28.7 °F 24.8 °F 75% 30.44 in 10.0 mi South 3.5 mph - N/A   Clear
9:35 AM 33.8 °F 29.6 °F 24.8 °F 70% 30.44 in 10.0 mi South 4.6 mph - N/A   Clear
9:55 AM 35.6 °F 30.7 °F 26.6 °F 70% 30.44 in 10.0 mi South 5.8 mph - N/A   Clear
10:15 AM 35.6 °F 29.9 °F 24.8 °F 65% 30.44 in 10.0 mi South 6.9 mph - N/A   Clear
10:35 AM 37.4 °F 32.1 °F 26.6 °F 65% 30.44 in 10.0 mi South 6.9 mph - N/A   Clear
10:55 AM 37.4 °F 32.8 °F 26.6 °F 65% 30.43 in 10.0 mi South 5.8 mph - N/A   Clear
11:15 AM 39.2 °F 35.0 °F 23.0 °F 52% 30.42 in 10.0 mi South 5.8 mph - N/A   Clear
11:35 AM 41.0 °F 36.4 °F 23.0 °F 49% 30.41 in 10.0 mi South 6.9 mph - N/A   Clear
11:55 AM 42.8 °F 38.6 °F 23.0 °F 46% 30.40 in 10.0 mi SSW 6.9 mph - N/A   Clear
12:15 PM 42.8 °F 38.0 °F 23.0 °F 46% 30.40 in 10.0 mi WSW 8.1 mph - N/A   Clear
12:35 PM 42.8 °F 37.5 °F 23.0 °F 46% 30.39 in 10.0 mi SSW 9.2 mph - N/A   Clear
12:55 PM 44.6 °F 40.2 °F 23.0 °F 43% 30.39 in 10.0 mi South 8.1 mph - N/A   Clear
1:15 PM 42.8 °F 38.6 °F 23.0 °F 46% 30.39 in 10.0 mi South 6.9 mph - N/A   Clear
1:35 PM 44.6 °F 40.2 °F 23.0 °F 43% 30.38 in 10.0 mi South 8.1 mph - N/A   Clear
1:55 PM 44.6 °F 39.7 °F 21.2 °F 39% 30.37 in 10.0 mi South 9.2 mph - N/A   Clear
2:15 PM 44.6 °F 40.7 °F 21.2 °F 39% 30.38 in 10.0 mi South 6.9 mph - N/A   Clear
2:35 PM 42.8 °F 38.0 °F 23.0 °F 46% 30.38 in 10.0 mi South 8.1 mph - N/A   Clear
2:55 PM 44.6 °F 40.7 °F 23.0 °F 43% 30.38 in 10.0 mi South 6.9 mph - N/A   Clear
3:15 PM 42.8 °F 39.3 °F 23.0 °F 46% 30.38 in 10.0 mi SSE 5.8 mph - N/A   Clear
3:35 PM 42.8 °F 40.1 °F 23.0 °F 46% 30.39 in 10.0 mi SE 4.6 mph - N/A   Clear
3:55 PM 41.0 °F 38.0 °F 24.8 °F 53% 30.38 in 10.0 mi SE 4.6 mph - N/A   Clear
4:15 PM 39.2 °F 37.0 °F 23.0 °F 52% 30.38 in 10.0 mi ESE 3.5 mph - N/A   Scattered Clouds
4:55 PM 37.4 °F 34.9 °F 24.8 °F 60% 30.38 in 10.0 mi SE 3.5 mph - N/A   Scattered Clouds
5:15 PM 37.4 °F - 24.8 °F 60% 30.39 in 10.0 mi Calm Calm - N/A   Scattered Clouds
5:35 PM 37.4 °F - 24.8 °F 60% 30.39 in 10.0 mi Calm Calm - N/A   Scattered Clouds
5:55 PM 35.6 °F 32.8 °F 26.6 °F 70% 30.39 in 10.0 mi SE 3.5 mph - N/A   Scattered Clouds
6:15 PM 35.6 °F 32.8 °F 26.6 °F 70% 30.39 in 10.0 mi SE 3.5 mph - N/A   Scattered Clouds
6:35 PM 35.6 °F 32.8 °F 26.6 °F 70% 30.39 in 10.0 mi SE 3.5 mph - N/A   Clear
6:55 PM 33.8 °F 30.8 °F 26.6 °F 75% 30.39 in 10.0 mi SE 3.5 mph - N/A   Mostly Cloudy
7:15 PM 35.6 °F - 26.6 °F 70% 30.39 in 10.0 mi Calm Calm - N/A   Overcast
7:35 PM 35.6 °F 32.8 °F 26.6 °F 70% 30.39 in 10.0 mi SE 3.5 mph - N/A   Overcast
7:55 PM 35.6 °F 32.8 °F 26.6 °F 70% 30.39 in 10.0 mi SE 3.5 mph - N/A   Overcast
8:15 PM 35.6 °F 32.8 °F 26.6 °F 70% 30.39 in 10.0 mi SE 3.5 mph - N/A   Mostly Cloudy
8:55 PM 35.6 °F - 26.6 °F 70% 30.39 in 10.0 mi Calm Calm - N/A   Overcast
9:15 PM 35.6 °F - 26.6 °F 70% 30.40 in 10.0 mi Calm Calm - N/A   Overcast
9:35 PM 35.6 °F - 26.6 °F 70% 30.40 in 10.0 mi Calm Calm - N/A   Overcast
9:55 PM 35.6 °F 32.8 °F 26.6 °F 70% 30.40 in 10.0 mi South 3.5 mph - N/A   Mostly Cloudy
10:15 PM 33.8 °F - 26.6 °F 75% 30.40 in 10.0 mi Calm Calm - N/A   Scattered Clouds
10:35 PM 33.8 °F - 24.8 °F 70% 30.40 in 10.0 mi Calm Calm - N/A   Scattered Clouds
10:55 PM 33.8 °F - 24.8 °F 70% 30.40 in 10.0 mi Calm Calm - N/A   Mostly Cloudy
11:15 PM 33.8 °F - 26.6 °F 75% 30.40 in 10.0 mi Calm Calm - N/A   Mostly Cloudy
11:35 PM 33.8 °F 30.8 °F 26.6 °F 75% 30.40 in 10.0 mi South 3.5 mph - N/A   Overcast
11:55 PM 33.8 °F - 26.6 °F 75% 30.40 in 10.0 mi Calm Calm - N/A   Overcast